Domov               UVHVVR             MKGP            O straneh              
ZDRAVSTVENO VARSTVO RASTLIN
  MREŽA AGROMET. POSTAJ
 ► PROGNOSTIČNA OBVESTILA
AGROMETEOROLOŠKI PODATKI -
ARSO
OBVLADOVANJE TVEGANJ ZARADI
NEUGODNIH VREMENSKIH RAZMER
  ► NARAVNE NESREČE
  ► SUŠA/MOČA
  ► NAMAKANJE
  ► ŽLED (gozdarstvo)
KARTOGRAFSKI PRIKAZI
SPLETNE POVEZAVE
PROJEKTI IN PUBLIKACIJE

AGROMETEOROLOŠKA MREŽA: VREMENSKE POSTAJE IN FENOLOŠKA OPAZOVANJA

Pregled podatkov za lokacijo Litmerk, meteorološka postaja 27388

Pregled senzorjev na lokaciji

ID Ime Zadnja
vrednost
Datum
zadnje
spremembe
Tip
senzorja
953 Padavine (mm) 0 mm 16.12.2017 19:00 Generic 0.2 mm
1457 Omočenost lista (U) 7 U 16.12.2017 19:00 A730WET
1458 Temperatura 2 m (°C) 2,15 °C 16.12.2017 19:00 Generic -40 - +60 °C
1459 Relativna vlaga 2 m (% RH) 96,85 % RH 16.12.2017 19:00 Generic 0 - 100 %

Pregled podatkov zadnjih 24 ur

Zap.
št.
Datum in čas Litmerk
Omočenost
lista
Padavine Relativna
vlaga
2
m
Temperatura
2
m
0 16.12.2017 19:00 7 0 96,85 2,15
1 16.12.2017 18:30 8 0 94,26 2,47
2 16.12.2017 18:00 7 0 93,8 2,44
3 16.12.2017 17:30 2 0 92,63 2,74
4 16.12.2017 17:00 1 0 89,5 2,81
5 16.12.2017 16:30 0 0 88,25 3,13
6 16.12.2017 16:00 0 0 85,49 3,57
7 16.12.2017 15:30 0 0 85,86 3,76
8 16.12.2017 15:00 0 0 85,32 4,03
9 16.12.2017 14:30 0 0 84 4,27
10 16.12.2017 14:00 0 0 82,25 4,49
11 16.12.2017 13:30 0 0 84,71 4,47
12 16.12.2017 13:00 0 0 86,96 4,47
13 16.12.2017 12:30 0 0 87,57 4,08
14 16.12.2017 12:00 0 0 89,55 3,91
15 16.12.2017 11:30 0 0 90,7 3,57
16 16.12.2017 11:00 0 0 93,46 3,54
17 16.12.2017 10:30 0 0 94,97 3,17
18 16.12.2017 10:00 0 0 97,14 2,44
19 16.12.2017 09:30 1 0 99,29 2,05
20 16.12.2017 09:00 3 0 99,93 1,95
21 16.12.2017 08:30 5 0 99,93 1,73
22 16.12.2017 08:00 4 0 99,93 1,71
23 16.12.2017 07:30 4 0,2 99,93 1,81
24 16.12.2017 07:00 6 0 99,93 1,73
25 16.12.2017 06:30 3 0 99,93 1,78
26 16.12.2017 06:00 3 0 99,93 1,88
27 16.12.2017 05:30 3 0 97,29 2,03
28 16.12.2017 05:00 4 0 99,93 1,88
29 16.12.2017 04:30 4 0,2 99,93 1,88
30 16.12.2017 04:00 4 0 99,93 1,81
31 16.12.2017 03:30 4 0,2 99,93 1,9
32 16.12.2017 03:00 4 0 99,93 1,83
33 16.12.2017 02:30 4 0,2 99,93 1,88
34 16.12.2017 02:00 3 0 99,93 1,88
35 16.12.2017 01:30 3 0,2 99,93 1,9
36 16.12.2017 01:00 4 0,4 99,93 1,95
37 16.12.2017 00:30 4 0,2 99,93 1,76
38 16.12.2017 00:00 3 0 99,93 1,76
39 15.12.2017 23:30 3 0,2 99,93 1,66
40 15.12.2017 23:00 2 0 99,93 1,56
41 15.12.2017 22:30 1 0 99,93 1,44
42 15.12.2017 22:00 2 0 99,93 1,2
43 15.12.2017 21:30 2 0,8 99,93 1,2
44 15.12.2017 21:00 2 1,4 99,93 1,34
45 15.12.2017 20:30 2 1,4 99,93 1,81
46 15.12.2017 20:00 3 1,6 99,93 2,3
© 2011 Ministrstvo za kmetijstvo, gozdarstvo in prehrano. Vse pravice pridržane.